Showing default

GSAT 19, 42747

Orbit data source: Space-Track

GSAT 19, 42747 is a payload satellite owned by ISRO (IN) in GEO that was launched on Mon, 05 Jun 2017 UTC via a GSLV MK III launch vehicle from the Sirharikota (SRI). Payload-class satellites include a variety of spacecraft equipped with specific instruments for various scientific and technological missions. These include communications satellites like Starlink; space stations such as the ISS; scientific satellites like the Hubble; Earth observation satellites from companies like Planet Labs, Umbra, and HawkEye 360; GPS; miniature CubeSats for education and research; and military/defense satellites.

Not visible in the next 10 days
Identifier
42747, 2017-031A
Orbit
GEO
Country
Flag of ININ / IND
Related business
Manufacturer
ISRO SAC/Banga
Mission
Operational Civil Communications
Bus & Motor
I3K, ISRO LAM
Mass
3,136 kg wet, 1,394 kg dry
Launch date (UTC)
2017-06-05 (9 years ago)
Launch vehicle
GSLV MK III
Launch site
Sirharikota (SRI)
Object type
Payload
Rocket body
Debris
Shape & HBR
Box + 2 Pan, 10.0 m
Radar Cross Section
16.006 m², Large (>1 m²)

Expand to show TLE details & history
Last TLE update: 2 days ago

TLE from 2 days ago
0 GSAT 19
1 42747U 17031A   26171.25890353  .00000121  00000-0  00000+0 0  9991
2 42747   0.0306 265.2288 0007006 166.6198 337.7028  1.00269785 33170
Epoch: 2026-06-20T06:12Z
TLE epoch observation values (Epoch: 2026-06-20T06:12:49.264Z)
Latitude
0.02735°
Longitude
47.85167°
Altitude
35,759.246 km
Speed
3.077 km/s
True Right ascension
03h 18m 07s
True Declination
0° 01' 38"
Sunlit
Object was in daylight at epoch
Visualization orbit readout
Latitude
Unknown
Longitude
Unknown
Altitude
Unknown
Speed
Unknown
Apparent Right ascension
Unknown
Apparent Declination
Unknown
Sunlit
N/A
Visualization observer readout
Local Sidereal Time
21:28:05
Azimuth
Unknown
Elevation
Unknown
Doppler factor
Unknown
Orbital elements
Apogee altitude
35,817.768 km
Perigee altitude
35,758.684 km
Semi-major axis
42,166.363 km
Eccentricity
0.0007
Inclination
0.0306°
RAAN
265.2288°
Arg. of periapsis
166.6198°
True anomaly
337.67232°
Mean anomaly
337.7028°
Eccentric anomaly
337.68756°
Mean motion
0.25067 °/min
Orbital period
1,436.18 mins
BSTAR
0
Loading maneuver chart data...
Computing Atmospheric mass density...
Loading historical data...
Loading historical data...
Loading historical data...
Loading historical data...
Loading historical data...
Loading historical data...
Loading historical data...
Other satellites on launch #31 in the year 2017 (2017-06-05 UTC)

Documentation

Showing up to 5 results
|